Weather History for Clayton Lake, ME

Change the Weather History Date:

Saturday, April 19, 2014

  Actual Average Record
Temperature  
Mean Temperature 37 °F -  
Max Temperature 44 °F 46 °F 69 °F (2004)
Min Temperature 29 °F 26 °F 21 °F (2001)
Degree Days  
Heating Degree Days 28    
Moisture  
Dew Point 24 °F    
Average Humidity 60    
Maximum Humidity 85    
Minimum Humidity 44    
Precipitation  
Precipitation 0.00 in - - ()
Sea Level Pressure  
Sea Level Pressure 30.18 in    
Wind  
Wind Speed 2 mph (WNW)    
Max Wind Speed 8 mph    
Max Gust Speed 26 mph    
Averages and records for this station are not official NWS values.
T = Trace of Precipitation, MM = Missing Value Source: NWS Daily Summary

Daily Weather History Graph

Daily Weather History Graph

Search for Another Location

Airport:

Trip Planner

Search our weather history database for the weather conditions in past years. The results will help you decide how hot, cold, wet, or windy it might be!

Date:

Astronomy

Apr. 19, 2014 Rise Set
Actual Time 5:43 AM EDT 7:31 PM EDT
Civil Twilight 5:11 AM EDT 8:03 PM EDT
Nautical Twilight 4:32 AM EDT 8:43 PM EDT
Astronomical Twilight 3:49 AM EDT 9:26 PM EDT
Moon No Moon Rise 8:50 AM EDT (4/19)
Length of Visible Light 14h 52m
Length of Day
13h 47m
Waning Gibbous, 79% of the Moon is Illuminated
Apr 19
Waning Gibbous
Apr 22
Last Quarter
Apr 29
New
May 6
First Quarter
May 14
Full

Hourly Weather History & Observations

Time (EDT) Temp. Windchill Dew Point Humidity Pressure Visibility Wind Dir Wind Speed Gust Speed Precip Events Conditions
12:16 AM 34.0 °F - 25.0 °F 70% 30.14 in - Calm Calm - N/A   Unknown
1:16 AM 34.9 °F - 24.6 °F 66% 30.12 in - Calm Calm - N/A   Unknown
2:16 AM 34.0 °F - 26.1 °F 73% 30.11 in - Calm Calm - N/A   Unknown
3:16 AM 33.6 °F - 25.3 °F 72% 30.09 in - Calm Calm - N/A   Unknown
4:16 AM 32.7 °F - 25.9 °F 76% 30.07 in - Calm Calm - N/A   Unknown
5:16 AM 31.5 °F - 27.3 °F 85% 30.06 in - Calm Calm - N/A   Unknown
6:16 AM 31.6 °F - 27.3 °F 84% 30.07 in - Calm Calm - N/A   Unknown
7:16 AM 34.3 °F - 26.6 °F 73% 30.09 in - Calm Calm - N/A   Unknown
8:16 AM 37.4 °F - 24.4 °F 60% 30.10 in - Calm Calm - 0.00 in   Unknown
9:16 AM 40.1 °F - 24.8 °F 54% 30.11 in - Variable 2.3 mph - N/A   Unknown
10:16 AM 41.0 °F 38.0 °F 28.0 °F 60% 30.12 in - Variable 4.6 mph - N/A   Unknown
11:16 AM 42.1 °F 39.2 °F 27.5 °F 56% 30.13 in - Variable 4.6 mph - N/A   Unknown
12:16 PM 43.9 °F 39.3 °F 28.4 °F 55% 30.13 in - West 8.1 mph 19.6 mph N/A   Unknown
1:16 PM 43.9 °F 40.5 °F 27.9 °F 53% 30.15 in - Variable 5.8 mph 16.1 mph N/A   Unknown
2:16 PM 42.4 °F 37.5 °F 22.1 °F 44% 30.17 in - WNW 8.1 mph 18.4 mph N/A   Unknown
3:16 PM 41.2 °F 36.6 °F 22.3 °F 47% 30.19 in - Variable 6.9 mph 26.5 mph N/A   Unknown
4:16 PM 41.0 °F 39.0 °F 21.6 °F 46% 30.21 in - Variable 3.5 mph 24.2 mph N/A   Unknown
5:16 PM 40.1 °F 34.7 °F 19.8 °F 44% 30.24 in - WNW 8.1 mph 17.3 mph N/A   Unknown
6:16 PM 39.6 °F 35.4 °F 20.3 °F 46% 30.27 in - Variable 5.8 mph 13.8 mph N/A   Unknown
7:16 PM 38.1 °F 33.7 °F 18.9 °F 46% 30.30 in - Variable 5.8 mph 17.3 mph N/A   Unknown
8:16 PM 35.8 °F 31.9 °F 18.9 °F 50% 30.33 in - Variable 4.6 mph - N/A   Unknown
9:16 PM 33.6 °F 29.4 °F 19.2 °F 56% 30.35 in - Variable 4.6 mph - 0.00 in   Unknown
10:16 PM 33.1 °F 30.0 °F 19.2 °F 57% 30.38 in - Variable 3.5 mph - N/A   Unknown
11:16 PM 29.1 °F 25.4 °F 21.7 °F 74% 30.39 in - Variable 3.5 mph - N/A   Unknown